Orbital Elements
Epoch 2011 Nov. 15.0 TT = JDT 2455880.5
T 2011 Nov. 1.27419 TT MPC
q 1.9434562 (2000.0) P Q
z -0.0009328 Peri. 257.02897 -0.03188402 -0.68527780
+/-0.0000047 Node 131.34835 +0.07562088 +0.72421314
e 1.0018128 Incl. 104.25770 -0.99662676 +0.07687436
From 52 observations 2011 June 2-2012 Jan. 28, mean residual 0".5.
|